When you browse on this site, cookies collect data to enhance your experience and personalize the content and advertising you see.
Visit our Privacy Policy to learn more. By continuing to use the site, you agree to this use of cookies and data.
  • In Österreich
  • Länderverzeichnis
  • Für 7 Tage
  • Wassertemperatur
  • Satellitenkarten
  • Wetterkarte
  • News
  • Widgets
  • user-avatar
    Anmelden

    Stündliche Wetter Conway

    Heute, 20 April, Samstag

    Zeit Temperatur Niederschläge Wind Luftdruck Luftfeuchtigkeit
    00:00 +9°C° 0 mm 3 m/S 751 mmHg 69%
    01:00 +9°C° 0 mm 3 m/S 751 mmHg 69%
    02:00 +8°C° 0 mm 3 m/S 751 mmHg 70%
    03:00 +8°C° 0 mm 3 m/S 751 mmHg 71%
    04:00 +8°C° 0 mm 3 m/S 751 mmHg 73%
    05:00 +7°C° 0 mm 2 m/S 752 mmHg 75%
    06:00 +7°C° 0 mm 2 m/S 752 mmHg 77%
    07:00 +10°C° 0 mm 2 m/S 752 mmHg 68%
    08:00 +13°C° 0 mm 3 m/S 753 mmHg 58%
    09:00 +17°C° 0 mm 3 m/S 753 mmHg 49%
    10:00 +18°C° 0 mm 3 m/S 753 mmHg 45%
    11:00 +20°C° 0 mm 3 m/S 753 mmHg 41%
    12:00 +21°C° 0 mm 4 m/S 753 mmHg 37%
    13:00 +22°C° 0 mm 3 m/S 752 mmHg 37%
    14:00 +22°C° 0 mm 3 m/S 752 mmHg 37%
    15:00 +24°C° 0 mm 3 m/S 751 mmHg 36%
    16:00 +22°C° 0 mm 3 m/S 751 mmHg 45%
    17:00 +20°C° 0 mm 2 m/S 751 mmHg 53%
    18:00 +19°C° 0 mm 2 m/S 751 mmHg 61%
    19:00 +18°C° 0 mm 1 m/S 751 mmHg 63%
    20:00 +16°C° 0 mm 1 m/S 751 mmHg 66%
    21:00 +14°C° 0 mm 1 m/S 752 mmHg 68%
    22:00 +14°C° 0 mm 1 m/S 752 mmHg 70%
    23:00 +13°C° 0 mm 1 m/S 752 mmHg 71%

    Morgen, 21 April, Sonntag

    Zeit Temperatur Niederschläge Wind Luftdruck Luftfeuchtigkeit
    00:00 +13°C° 0 mm 1 m/S 752 mmHg 73%
    01:00 +12°C° 0 mm 1 m/S 752 mmHg 77%
    02:00 +12°C° 0 mm 1 m/S 752 mmHg 80%
    03:00 +11°C° 0 mm 0 m/S 752 mmHg 84%
    04:00 +12°C° 0 mm 1 m/S 752 mmHg 86%
    05:00 +12°C° 0 mm 1 m/S 752 mmHg 88%
    06:00 +12°C° 0 mm 1 m/S 752 mmHg 90%
    07:00 +15°C° 0 mm 1 m/S 753 mmHg 81%
    08:00 +17°C° 0 mm 2 m/S 753 mmHg 72%
    09:00 +20°C° 0 mm 2 m/S 754 mmHg 63%
    10:00 +22°C° 0 mm 3 m/S 754 mmHg 57%
    11:00 +25°C° 0 mm 3 m/S 754 mmHg 51%
    12:00 +27°C° 0 mm 3 m/S 754 mmHg 45%
    13:00 +27°C° 0 mm 4 m/S 753 mmHg 45%
    14:00 +28°C° 0 mm 4 m/S 752 mmHg 44%
    15:00 +28°C° 0 mm 4 m/S 752 mmHg 43%
    16:00 +27°C° 0 mm 4 m/S 752 mmHg 50%
    17:00 +26°C° 0 mm 3 m/S 752 mmHg 57%
    18:00 +24°C° 0 mm 3 m/S 752 mmHg 65%
    19:00 +22°C° 0 mm 3 m/S 752 mmHg 69%
    20:00 +20°C° 0 mm 3 m/S 753 mmHg 73%
    21:00 +19°C° 0 mm 3 m/S 753 mmHg 77%
    22:00 +19°C° 0 mm 3 m/S 753 mmHg 78%
    23:00 +18°C° 0 mm 2 m/S 753 mmHg 79%

    übermorgen, 22 April, Montag

    Zeit Temperatur Niederschläge Wind Luftdruck Luftfeuchtigkeit
    00:00 +18°C° 0 mm 2 m/S 753 mmHg 79%
    01:00 +18°C° 0 mm 2 m/S 753 mmHg 78%
    02:00 +18°C° 0 mm 3 m/S 753 mmHg 77%
    03:00 +18°C° 0 mm 3 m/S 753 mmHg 76%
    04:00 +17°C° 0 mm 3 m/S 753 mmHg 79%
    05:00 +16°C° 0 mm 2 m/S 753 mmHg 81%
    06:00 +15°C° 0 mm 2 m/S 754 mmHg 84%
    07:00 +17°C° 0 mm 3 m/S 754 mmHg 77%
    08:00 +19°C° 0 mm 3 m/S 754 mmHg 69%
    09:00 +21°C° 0 mm 4 m/S 755 mmHg 62%
    10:00 +23°C° 0 mm 4 m/S 754 mmHg 57%
    11:00 +26°C° 0 mm 4 m/S 754 mmHg 52%
    12:00 +28°C° 0 mm 5 m/S 754 mmHg 46%
    13:00 +28°C° 0 mm 5 m/S 754 mmHg 45%
    14:00 +29°C° 0 mm 5 m/S 753 mmHg 43%
    15:00 +30°C° 0 mm 4 m/S 752 mmHg 42%
    16:00 +28°C° 0 mm 4 m/S 752 mmHg 49%
    17:00 +27°C° 0 mm 3 m/S 752 mmHg 56%
    18:00 +25°C° 0 mm 2 m/S 752 mmHg 63%
    19:00 +24°C° 0 mm 2 m/S 753 mmHg 67%
    20:00 +21°C° 0 mm 2 m/S 753 mmHg 72%
    21:00 +19°C° 0 mm 2 m/S 753 mmHg 77%
    22:00 +19°C° 0 mm 2 m/S 753 mmHg 79%
    23:00 +18°C° 0 mm 2 m/S 753 mmHg 82%

    23 April, Dienstag

    Zeit Temperatur Niederschläge Wind Luftdruck Luftfeuchtigkeit
    00:00 +18°C° 0 mm 2 m/S 753 mmHg 85%
    01:00 +18°C° 0 mm 2 m/S 753 mmHg 88%
    02:00 +18°C° 0 mm 1 m/S 753 mmHg 91%
    03:00 +18°C° 0 mm 1 m/S 753 mmHg 94%
    04:00 +18°C° 0 mm 1 m/S 753 mmHg 95%
    05:00 +16°C° 0 mm 1 m/S 754 mmHg 96%
    06:00 +16°C° 0 mm 2 m/S 754 mmHg 97%
    07:00 +18°C° 0 mm 2 m/S 754 mmHg 89%
    08:00 +20°C° 0 mm 3 m/S 754 mmHg 81%
    09:00 +22°C° 0 mm 3 m/S 755 mmHg 73%
    10:00 +24°C° 0 mm 3 m/S 754 mmHg 69%
    11:00 +25°C° 0 mm 4 m/S 754 mmHg 65%
    12:00 +26°C° 0 mm 4 m/S 754 mmHg 61%
    13:00 +27°C° 0 mm 4 m/S 753 mmHg 57%
    14:00 +28°C° 0 mm 4 m/S 752 mmHg 53%
    15:00 +29°C° 0 mm 4 m/S 752 mmHg 48%
    16:00 +28°C° 0 mm 3 m/S 752 mmHg 55%
    17:00 +27°C° 0 mm 2 m/S 752 mmHg 61%
    18:00 +26°C° 0 mm 2 m/S 752 mmHg 68%
    19:00 +24°C° 0 mm 1 m/S 752 mmHg 74%
    20:00 +23°C° 0 mm 1 m/S 752 mmHg 79%
    21:00 +21°C° 0 mm 1 m/S 752 mmHg 85%
    22:00 +21°C° 0 mm 1 m/S 752 mmHg 86%
    23:00 +21°C° 0 mm 1 m/S 752 mmHg 88%

    24 April, Mittwoch

    Zeit Temperatur Niederschläge Wind Luftdruck Luftfeuchtigkeit
    00:00 +20°C° 0 mm 1 m/S 752 mmHg 89%
    01:00 +20°C° 0.3 mm 1 m/S 752 mmHg 91%
    02:00 +20°C° 0.3 mm 1 m/S 752 mmHg 93%
    03:00 +20°C° 0.3 mm 1 m/S 751 mmHg 96%
    04:00 +20°C° 1.7 mm 1 m/S 751 mmHg 96%
    05:00 +19°C° 1.7 mm 2 m/S 751 mmHg 97%
    06:00 +18°C° 1.7 mm 2 m/S 751 mmHg 97%
    07:00 +19°C° 3.2 mm 2 m/S 752 mmHg 96%
    08:00 +20°C° 3.2 mm 2 m/S 752 mmHg 94%
    09:00 +21°C° 3.2 mm 3 m/S 752 mmHg 93%
    10:00 +22°C° 1.7 mm 3 m/S 752 mmHg 90%
    11:00 +23°C° 1.7 mm 4 m/S 752 mmHg 87%
    12:00 +25°C° 1.7 mm 4 m/S 751 mmHg 84%
    13:00 +25°C° 1.4 mm 4 m/S 751 mmHg 84%
    14:00 +25°C° 1.4 mm 3 m/S 750 mmHg 83%
    15:00 +25°C° 1.4 mm 3 m/S 750 mmHg 83%
    16:00 +24°C° 1.2 mm 3 m/S 750 mmHg 86%
    17:00 +24°C° 1.2 mm 2 m/S 750 mmHg 88%
    18:00 +23°C° 1.2 mm 1 m/S 750 mmHg 91%
    19:00 +22°C° 0.1 mm 1 m/S 750 mmHg 92%
    20:00 +21°C° 0.1 mm 1 m/S 750 mmHg 93%
    21:00 +20°C° 0.1 mm 1 m/S 751 mmHg 95%
    22:00 +20°C° 0 mm 1 m/S 751 mmHg 95%
    23:00 +20°C° 0 mm 1 m/S 751 mmHg 96%

    25 April, Donnerstag

    Zeit Temperatur Niederschläge Wind Luftdruck Luftfeuchtigkeit
    00:00 +20°C° 0 mm 1 m/S 750 mmHg 96%
    01:00 +19°C° 1.5 mm 1 m/S 750 mmHg 96%
    02:00 +19°C° 1.5 mm 1 m/S 750 mmHg 96%
    03:00 +19°C° 1.5 mm 1 m/S 750 mmHg 97%
    04:00 +19°C° 1.2 mm 1 m/S 750 mmHg 97%
    05:00 +19°C° 1.2 mm 1 m/S 750 mmHg 96%
    06:00 +18°C° 1.2 mm 1 m/S 750 mmHg 96%
    07:00 +18°C° 0.2 mm 1 m/S 751 mmHg 95%
    08:00 +19°C° 0.2 mm 1 m/S 751 mmHg 94%
    09:00 +19°C° 0.2 mm 1 m/S 751 mmHg 94%
    10:00 +21°C° 0 mm 1 m/S 751 mmHg 87%
    11:00 +23°C° 0 mm 1 m/S 751 mmHg 80%
    12:00 +25°C° 0 mm 1 m/S 750 mmHg 74%
    13:00 +25°C° 0.1 mm 1 m/S 750 mmHg 71%
    14:00 +25°C° 0.1 mm 1 m/S 750 mmHg 68%
    15:00 +26°C° 0.1 mm 2 m/S 749 mmHg 65%
    16:00 +25°C° 0.1 mm 1 m/S 750 mmHg 69%
    17:00 +24°C° 0.1 mm 1 m/S 750 mmHg 74%
    18:00 +24°C° 0.1 mm 1 m/S 750 mmHg 78%
    19:00 +22°C° 0.1 mm 1 m/S 751 mmHg 82%
    20:00 +21°C° 0.1 mm 1 m/S 751 mmHg 86%
    21:00 +19°C° 0.1 mm 1 m/S 752 mmHg 90%
    22:00 +18°C° 0 mm 1 m/S 752 mmHg 91%
    23:00 +18°C° 0 mm 1 m/S 752 mmHg 92%
    Mehr zeigen